EW2244 Weather Reports


Display with metric or nautical units.
time (UTC)temp
F
wind
direction
speed
MPH
gust
MPH
rain 1hr
in
rain 24hr
in
rain mn
in
humidity
%
barometer
mb
20200710161135 76 281 0.0 9.0 0.00 0.00 0.00 73 1014.8
20200710160118 76 32 1.0 4.0 0.00 0.00 0.00 73 1014.8
20200710155123 76 259 0.0 6.0 0.00 0.00 0.00 72 1014.6
20200710154131 75 26 4.0 10.0 0.00 0.00 0.00 71 1014.7
20200710153122 76 360 2.0 5.0 0.00 0.00 0.00 70 1014.9
20200710152128 77 347 4.0 9.0 0.00 0.00 0.00 68 1015.1
20200710151133 79 42 1.0 4.0 0.00 0.00 0.00 69 1015.2
20200710150120 80 21 1.0 5.0 0.00 0.00 0.00 69 1015.1
20200710145131 80 134 0.0 2.0 0.00 0.00 0.00 68 1015.1
20200710144116 81 162 0.0 5.0 0.00 0.00 0.00 68 1015.1
20200710143124 81 202 0.0 1.0 0.00 0.00 0.00 67 1015.0
20200710142130 82 124 1.0 6.0 0.00 0.00 0.00 67 1014.7
20200710141120 83 133 1.0 11.0 0.00 0.00 0.00 66 1014.6
20200710140128 83 183 2.0 9.0 0.00 0.00 0.00 62 1014.6
20200710135134 84 147 1.0 10.0 0.00 0.00 0.00 64 1014.7
20200710134124 84 108 2.0 8.0 0.00 0.00 0.00 65 1014.8
20200710133132 84 223 3.0 6.0 0.00 0.00 0.00 63 1015.0
20200710132118 84 210 1.0 6.0 0.00 0.00 0.00 64 1015.0
20200710131125 83 148 1.0 7.0 0.00 0.00 0.00 63 1015.0
20200710130134 83 173 2.0 7.0 0.00 0.00 0.00 62 1015.2
20200710125123 82 113 1.0 4.0 0.00 0.00 0.00 70 1015.4
20200710124129 82 198 2.0 5.0 0.00 0.00 0.00 63 1015.5
20200710123118 82 116 1.0 4.0 0.00 0.00 0.00 67 1015.6
20200710122127 82 139 0.0 6.0 0.00 0.00 0.00 67 1015.7
20200710121134 82 138 1.0 4.0 0.00 0.00 0.00 64 1015.8
20200710120119 83 99 0.0 5.0 0.00 0.00 0.00 64 1015.9
20200710115126 82 171 2.0 6.0 0.00 0.00 0.00 65 1016.0
20200710114116 82 289 2.0 4.0 0.00 0.00 0.00 63 1016.1
20200710113124 82 116 0.0 6.0 0.00 0.00 0.00 69 1016.1
20200710112130 82 161 5.0 9.0 0.00 0.00 0.00 66 1016.2
20200710111119 82 96 1.0 7.0 0.00 0.00 0.00 65 1016.2
20200710110134 82 142 2.0 8.0 0.00 0.00 0.00 64 1016.2
20200710105120 81 144 1.0 7.0 0.00 0.00 0.00 65 1016.3
20200710104123 80 273 1.0 5.0 0.00 0.00 0.00 66 1016.3
20200710103131 81 107 2.0 8.0 0.00 0.00 0.00 67 1016.4
20200710102119 81 112 2.0 6.0 0.00 0.00 0.00 67 1016.4
20200710101128 81 164 1.0 8.0 0.00 0.00 0.00 67 1016.5
20200710100134 81 53 0.0 8.0 0.00 0.00 0.00 68 1016.5
20200710095127 79 122 1.0 5.0 0.00 0.00 0.00 68 1016.5
20200710094134 80 126 0.0 5.0 0.00 0.00 0.00 67 1016.6
20200710093122 80 140 0.0 3.0 0.00 0.00 0.00 69 1016.7
20200710092129 80 38 0.0 1.0 0.00 0.00 0.00 69 1016.6
20200710091120 80 38 0.0 1.0 0.00 0.00 0.00 72 1016.7
20200710090127 80 47 0.0 1.0 0.00 0.00 0.00 73 1016.7
20200710085136 79 42 0.0 0.0 0.00 0.00 0.00 74 1016.7
20200710084122 78 47 0.0 1.0 0.00 0.00 0.00 72 1016.7
20200710083130 78 161 0.0 2.0 0.00 0.00 0.00 73 1016.8
20200710082135 78 290 0.0 0.0 0.00 0.00 0.00 73 1016.9
20200710081120 77 289 0.0 0.0 0.00 0.00 0.00 72 1016.9
20200710080129 77 289 0.0 0.0 0.00 0.00 0.00 74 1016.9
20200710075119 76 288 0.0 0.0 0.00 0.00 0.00 74 1016.9
20200710074129 77 288 0.0 0.0 0.00 0.00 0.00 78 1016.9
20200710073129 76 288 0.0 0.0 0.00 0.00 0.00 78 1016.9
20200710072116 75 288 0.0 0.0 0.00 0.00 0.00 77 1016.9
20200710071127 75 288 0.0 0.0 0.00 0.00 0.00 79 1016.9
20200710070132 74 288 0.0 0.0 0.00 0.00 0.00 78 1016.9
20200710065121 74 288 0.0 0.0 0.00 0.00 0.00 81 1016.8
20200710064124 73 288 0.0 0.0 0.00 0.00 0.00 83 1016.8
20200710063115 71 288 0.0 1.0 0.00 0.00 0.00 81 1016.8
20200710062124 72 288 0.0 0.0 0.00 0.00 0.00 82 1016.8
20200710061127 72 288 0.0 0.0 0.00 0.00 0.00 81 1016.7
20200710060120 72 288 0.0 4.0 0.00 0.00 0.00 81 1016.8
20200710055132 72 288 0.0 4.0 0.00 0.00 0.00 82 1016.7
20200710054138 71 292 0.0 3.0 0.00 0.00 0.00 83 1016.6
20200710053121 71 278 0.0 0.0 0.00 0.00 0.00 84 1016.6
20200710052133 70 278 0.0 2.0 0.00 0.00 0.00 85 1016.6
20200710051118 70 279 0.0 1.0 0.00 0.00 0.00 86 1016.6
20200710050127 69 267 0.0 3.0 0.00 0.00 0.00 88 1016.6
20200710045135 68 267 0.0 4.0 0.00 0.00 0.00 89 1016.5
20200710044128 67 264 0.0 1.0 0.00 0.00 0.00 89 1016.6
20200710043136 67 264 0.0 2.0 0.00 0.00 0.00 89 1016.6
20200710042117 67 263 0.0 0.0 0.00 0.00 0.00 88 1016.6
20200710041122 68 263 0.0 4.0 0.00 0.00 0.00 89 1016.5
20200710040133 67 355 0.0 3.0 0.00 0.00 0.00 89 1016.6
20200710035122 67 273 0.0 3.0 0.00 0.00 0.00 90 1016.6
20200710034128 67 275 1.0 4.0 0.00 0.00 0.00 90 1016.6
20200710033117 66 215 1.0 3.0 0.00 0.00 0.00 90 1016.6
20200710032129 66 215 1.0 3.0 0.00 0.00 0.00 90 1016.6
20200710031116 67 214 0.0 2.0 0.00 0.00 0.00 90 1016.6
20200710030125 66 238 0.0 3.0 0.00 0.00 0.00 90 1016.6
20200710025116 66 238 0.0 4.0 0.00 0.00 0.00 90 1016.7
20200710024126 67 238 1.0 2.0 0.00 0.00 0.00 90 1016.7
20200710023136 67 238 0.0 2.0 0.00 0.00 0.00 89 1016.7
20200710022122 67 238 0.0 1.0 0.00 0.00 0.00 89 1016.7
20200710021132 67 238 0.0 1.0 0.00 0.00 0.00 89 1016.7
20200710020121 67 238 0.0 3.0 0.00 0.00 0.00 89 1016.7
20200710015128 67 238 1.0 3.0 0.00 0.00 0.00 88 1016.7
20200710014135 68 265 0.0 2.0 0.00 0.00 0.00 88 1016.8
20200710013128 68 265 0.0 3.0 0.00 0.00 0.00 87 1016.8
20200710012136 69 267 1.0 3.0 0.00 0.00 0.00 87 1016.9
20200710011121 69 267 1.0 5.0 0.00 0.00 0.00 88 1016.9
20200710010132 68 223 0.0 2.0 0.00 0.00 0.00 89 1017.0
20200710005124 68 189 1.0 3.0 0.00 0.00 0.00 89 1017.0
20200710004130 68 250 0.0 3.0 0.00 0.00 0.00 88 1017.0
20200710003118 68 250 1.0 3.0 0.00 0.00 0.00 88 1017.0
20200710002119 68 250 1.0 2.0 0.00 0.00 0.00 87 1017.1
20200710001129 69 250 0.0 3.0 0.00 0.00 0.00 87 1017.1
20200710000115 69 250 0.0 2.0 0.00 0.00 0.00 87 1017.2
20200709235123 69 250 0.0 2.0 0.00 0.00 0.00 87 1017.1
20200709234130 69 250 0.0 1.0 0.00 0.00 0.00 86 1017.2
20200709233122 69 250 1.0 3.0 0.00 0.00 0.00 86 1017.2
20200709232130 69 250 0.0 2.0 0.00 0.00 0.00 86 1017.2
20200709231120 69 250 1.0 3.0 0.00 0.00 0.00 85 1017.2
20200709230129 69 250 0.0 1.0 0.00 0.00 0.00 85 1017.2
20200709225134 69 249 0.0 1.0 0.00 0.00 0.00 85 1017.2
20200709224124 69 249 1.0 2.0 0.00 0.00 0.00 84 1017.3
20200709223129 70 229 0.0 2.0 0.00 0.00 0.00 83 1017.2
20200709222121 70 229 0.0 1.0 0.00 0.00 0.00 83 1017.3
20200709221127 71 229 1.0 3.0 0.00 0.00 0.00 81 1017.3
20200709220134 71 140 0.0 1.0 0.00 0.00 0.00 81 1017.2
20200709215121 71 140 0.0 1.0 0.00 0.00 0.00 81 1017.2
20200709214133 71 140 0.0 0.0 0.00 0.00 0.00 81 1017.3
20200709213119 72 140 0.0 0.0 0.00 0.00 0.00 80 1017.3
20200709212125 72 140 0.0 0.0 0.00 0.00 0.00 79 1017.2
20200709211132 72 140 0.0 1.0 0.00 0.00 0.00 79 1017.2
20200709210121 72 136 0.0 0.0 0.00 0.00 0.00 78 1017.2
20200709205124 72 136 0.0 0.0 0.00 0.00 0.00 78 1017.2
20200709204131 72 136 0.0 0.0 0.00 0.00 0.00 78 1017.2
20200709203119 72 136 0.0 0.0 0.00 0.00 0.00 78 1017.1
20200709202127 72 136 0.0 0.0 0.00 0.00 0.00 78 1017.1
20200709201134 72 136 0.0 0.0 0.00 0.00 0.00 77 1017.0
20200709200121 73 136 0.0 0.0 0.00 0.00 0.00 77 1016.8
20200709195127 73 136 0.0 0.0 0.00 0.00 0.00 75 1016.8
20200709194118 73 136 0.0 0.0 0.00 0.00 0.00 75 1016.7
20200709193123 74 136 0.0 2.0 0.00 0.00 0.00 75 1016.6
20200709192129 74 131 0.0 1.0 0.00 0.00 0.00 75 1016.7
20200709191120 74 131 0.0 1.0 0.00 0.00 0.00 73 1016.7
20200709190126 75 131 0.0 1.0 0.00 0.00 0.00 72 1016.6
20200709185133 76 131 0.0 2.0 0.00 0.00 0.00 71 1016.6
20200709184120 76 131 0.0 0.0 0.00 0.00 0.00 71 1016.7
20200709183131 77 131 0.0 0.0 0.00 0.00 0.00 71 1016.7
20200709182120 77 131 0.0 1.0 0.00 0.00 0.00 70 1016.6
20200709181126 78 131 0.0 1.0 0.00 0.00 0.00 68 1016.6
20200709180131 78 131 0.0 1.0 0.00 0.00 0.00 67 1016.5
20200709175122 78 131 0.0 2.0 0.00 0.00 0.00 66 1016.5
20200709174128 78 128 0.0 2.0 0.00 0.00 0.00 67 1016.5
20200709173135 79 128 0.0 3.0 0.00 0.00 0.00 66 1016.5
20200709172123 79 125 0.0 2.0 0.00 0.00 0.00 64 1016.5
20200709171135 79 124 0.0 7.0 0.00 0.00 0.00 65 1016.5
20200709170121 79 107 0.0 4.0 0.00 0.00 0.00 65 1016.5
20200709165127 79 123 0.0 4.0 0.00 0.00 0.00 65 1016.6
20200709164135 80 119 2.0 6.0 0.00 0.00 0.00 65 1016.5
20200709163126 80 136 1.0 7.0 0.00 0.00 0.00 65 1016.7
20200709162131 80 85 2.0 5.0 0.00 0.00 0.00 64 1016.7